Showing default

FALCON EYE 2, 47226

Orbit data source: Space-Track

FALCON EYE 2, 47226 is a payload satellite owned by UAE AF (AE) in SSO that was launched on Wed, 02 Dec 2020 UTC via a SOYUZ-ST-A launch vehicle from the French Guiana (FRGUI). Payload-class satellites include a variety of spacecraft equipped with specific instruments for various scientific and technological missions. These include communications satellites like Starlink; space stations such as the ISS; scientific satellites like the Hubble; Earth observation satellites from companies like Planet Labs, Umbra, and HawkEye 360; GPS; miniature CubeSats for education and research; and military/defense satellites.

Loading next visibility...
Identifier
47226, 2020-090A
Orbit
SSO
Country
Flag of AEAE / UAE
Related business
Manufacturer
Airbus/Toulouse
Mission
Operational Defense Imaging
Bus & Motor
ASTROSAT-1000, Unknown motor
Mass
1,197 kg wet, ~900 kg dry
Launch date (UTC)
2020-12-02 (6 years ago)
Launch vehicle
SOYUZ-ST-A
Launch site
French Guiana (FRGUI)
Object type
Payload
Rocket body
Debris
Shape & HBR
Hex Cyl + 3 Pan, 3.5 m
Radar Cross Section
12.145 m², Large (>1 m²)

Expand to show TLE details & history
Last TLE update: 23 hours ago

TLE from 23 hours ago
0 FALCON EYE 2
1 47226U 20090A   26172.48187988  .00000442  00000-0  58204-4 0  9996
2 47226  97.8572 247.1749 0001440  80.2313 279.9064 14.84884610300870
Epoch: 2026-06-21T11:33Z
TLE epoch observation values (Epoch: 2026-06-21T11:33:54.421Z)
Latitude
-0.00006°
Longitude
164.01663°
Altitude
616.804 km
Speed
7.551 km/s
True Right ascension
16h 28m 41s
True Declination
0° 00' 00"
Sunlit
Object was in full shadow at epoch
Visualization orbit readout
Latitude
Unknown
Longitude
Unknown
Altitude
Unknown
Speed
Unknown
Apparent Right ascension
Unknown
Apparent Declination
Unknown
Sunlit
N/A
Visualization observer readout
Local Sidereal Time
21:30:22
Azimuth
Unknown
Elevation
Unknown
Doppler factor
Unknown
Orbital elements
Apogee altitude
611.987 km
Perigee altitude
609.974 km
Semi-major axis
6,989.117 km
Eccentricity
0.00014
Inclination
97.8572°
RAAN
247.1749°
Arg. of periapsis
80.2313°
True anomaly
279.89014°
Mean anomaly
279.9064°
Eccentric anomaly
279.89827°
Mean motion
3.71458 °/min
Orbital period
96.92 mins
BSTAR
0.000058204
Loading maneuver chart data...
Computing Atmospheric mass density...
Loading historical data...
Loading historical data...
Loading historical data...
Loading historical data...
Loading historical data...
Loading historical data...
Loading historical data...
Other satellites on launch #90 in the year 2020 (2020-12-02 UTC)

Documentation

Showing up to 5 results
|